Weather History for KTOL - December, 2013

Change the Weather History Date:

Friday, December 6, 2013

  Actual Average Record
Temperature  
Mean Temperature 28 °F 33 °F  
Max Temperature 31 °F 39 °F 69 °F (1998)
Min Temperature 24 °F 26 °F 0 °F (1964)
Degree Days  
Heating Degree Days 37 32  
Month to date heating degree days 159 188  
Since 1 July heating degree days 1507 1421  
Cooling Degree Days 0 0  
Month to date cooling degree days 0 0  
Year to date cooling degree days 793 793  
Moisture  
Dew Point 18 °F    
Average Humidity 64    
Maximum Humidity 69    
Minimum Humidity 58    
Precipitation  
Precipitation 0.00 in 0.09 in 0.91 in (1972)
Month to date precipitation T 0.55  
Year to date precipitation 33.76 32.11  
Snow  
Snow 0.00 in 0.20 in - ()
Month to date snowfall T 1.0  
Since 1 July snowfall 0.5 3.1  
Snow Depth 0.00 in    
Sea Level Pressure  
Sea Level Pressure 30.27 in    
Wind  
Wind Speed 8 mph (NW)    
Max Wind Speed 13 mph    
Max Gust Speed 16 mph    
Visibility 10 miles    
Events      
T = Trace of Precipitation, MM = Missing Value Source: NWS Daily Summary

Daily Weather History Graph

Daily Weather History Graph

Search for Another Location

Airport or City:

Trip Planner

Search our weather history database for the weather conditions in past years. The results will help you decide how hot, cold, wet, or windy it might be!

Date:

Astronomy

Dec. 06, 2013 Rise Set
Actual Time 7:47 AM EST 5:05 PM EST
Civil Twilight 7:16 AM EST 5:36 PM EST
Nautical Twilight 6:41 AM EST 6:10 PM EST
Astronomical Twilight 6:08 AM EST 6:44 PM EST
Moon 10:50 AM EST (12/6) 9:37 PM EST (12/6)
Length of Visible Light 10h 19m
Length of Day
9h 17m
Waxing Crescent, 19% of the Moon is Illuminated
Dec 6
Waxing Crescent
Dec 9
First Quarter
Dec 17
Full
Dec 25
Last Quarter
Jan 1
New

Hourly Weather History & Observations

Time (EST) Temp. Windchill Dew Point Humidity Pressure Visibility Wind Dir Wind Speed Gust Speed Precip Events Conditions
12:52 AM 30.0 °F 23.2 °F 19.9 °F 66% 30.15 in 10.0 mi WNW 6.9 mph - N/A   Overcast
1:52 AM 30.0 °F 23.2 °F 21.0 °F 69% 30.16 in 10.0 mi WNW 6.9 mph - N/A   Overcast
2:52 AM 30.0 °F 22.4 °F 21.0 °F 69% 30.17 in 10.0 mi WNW 8.1 mph - N/A   Mostly Cloudy
3:52 AM 30.0 °F 24.1 °F 21.0 °F 69% 30.19 in 10.0 mi WNW 5.8 mph - N/A   Scattered Clouds
4:52 AM 30.0 °F 24.1 °F 21.0 °F 69% 30.21 in 10.0 mi West 5.8 mph - N/A   Overcast
5:52 AM 30.0 °F 24.1 °F 19.9 °F 66% 30.21 in 10.0 mi WNW 5.8 mph - N/A   Overcast
6:52 AM 30.0 °F 24.1 °F 19.9 °F 66% 30.21 in 10.0 mi WNW 5.8 mph - N/A   Overcast
7:52 AM 30.0 °F 24.1 °F 19.9 °F 66% 30.25 in 10.0 mi WNW 5.8 mph - N/A   Overcast
8:52 AM 30.0 °F 23.2 °F 19.9 °F 66% 30.25 in 10.0 mi NNW 6.9 mph - N/A   Overcast
9:52 AM 30.0 °F 21.7 °F 19.9 °F 66% 30.27 in 10.0 mi NNW 9.2 mph - N/A   Overcast
10:52 AM 30.0 °F 21.7 °F 19.0 °F 64% 30.29 in 10.0 mi NNW 9.2 mph - N/A   Overcast
11:52 AM 28.9 °F 23.9 °F 18.0 °F 64% 30.29 in 10.0 mi WNW 4.6 mph - N/A   Mostly Cloudy
12:52 PM 30.0 °F 22.4 °F 18.0 °F 61% 30.28 in 10.0 mi WNW 8.1 mph - N/A   Partly Cloudy
1:52 PM 28.9 °F 19.8 °F 17.1 °F 61% 30.26 in 10.0 mi NNW 10.4 mph - N/A   Overcast
2:52 PM 28.9 °F 19.8 °F 18.0 °F 64% 30.25 in 10.0 mi NNW 10.4 mph - N/A   Overcast
3:52 PM 28.0 °F 20.8 °F 16.0 °F 61% 30.29 in 10.0 mi NNW 6.9 mph - N/A   Overcast
4:52 PM 28.0 °F 19.3 °F 16.0 °F 61% 30.30 in 10.0 mi NW 9.2 mph - N/A   Overcast
5:52 PM 27.0 °F 18.7 °F 16.0 °F 63% 30.30 in 10.0 mi North 8.1 mph - N/A   Overcast
6:52 PM 26.1 °F 18.4 °F 16.0 °F 66% 30.32 in 10.0 mi North 6.9 mph - N/A   Overcast
7:52 PM 26.1 °F 17.6 °F 16.0 °F 66% 30.36 in 10.0 mi NW 8.1 mph - N/A   Overcast
8:52 PM 26.1 °F 18.4 °F 15.1 °F 63% 30.35 in 10.0 mi NNW 6.9 mph - N/A   Overcast
9:52 PM 25.0 °F 17.1 °F 15.1 °F 66% 30.37 in 10.0 mi NW 6.9 mph - N/A   Scattered Clouds
10:38 PM 24.8 °F 17.9 °F 15.8 °F 69% 30.37 in 10.0 mi WNW 5.8 mph - N/A   Mostly Cloudy
10:52 PM 24.1 °F 15.2 °F 16.0 °F 71% 30.40 in 10.0 mi NW 8.1 mph - N/A   Overcast
11:52 PM 24.1 °F 13.1 °F 15.1 °F 69% 30.42 in 10.0 mi NW 11.5 mph - N/A   Overcast